| time (UTC) | temp F | wind direction | speed MPH | gust MPH | rain 1hr in | rain 24hr in | rain mn in | humidity % | barometer mb |
| 20260505061523 | 62 | 183 | 0.0 | 4.0 | 0.00 | 0.00 | 0.00 | 61 | 1013.8 |
| 20260505060027 | 62 | 206 | 2.0 | 8.0 | 0.00 | 0.00 | 0.00 | 59 | 1013.9 |
| 20260505054523 | 62 | 185 | 3.0 | 9.0 | 0.00 | 0.00 | 0.00 | 59 | 1013.9 |
| 20260505053021 | 62 | 179 | 2.0 | 11.0 | 0.00 | 0.00 | 0.00 | 59 | 1013.8 |
| 20260505051523 | 62 | 169 | 2.0 | 7.0 | 0.00 | 0.00 | 0.00 | 59 | 1013.9 |
| 20260505041521 | 61 | 220 | 1.0 | 4.0 | 0.00 | 0.00 | 0.00 | 61 | 1013.8 |
| 20260505040011 | 60 | 275 | 2.0 | 6.0 | 0.00 | 0.00 | 0.00 | 60 | 1013.7 |
| 20260505034510 | 60 | 230 | 2.0 | 4.0 | 0.00 | 0.00 | 0.00 | 63 | 1013.8 |
| 20260505033008 | 59 | 228 | 2.0 | 6.0 | 0.00 | 0.00 | 0.00 | 64 | 1013.7 |
| 20260505031507 | 59 | 226 | 1.0 | 4.0 | 0.00 | 0.00 | 0.00 | 66 | 1013.6 |
| 20260505030008 | 60 | 197 | 1.0 | 4.0 | 0.00 | 0.00 | 0.00 | 66 | 1013.7 |
| 20260505024506 | 60 | 213 | 0.0 | 3.0 | 0.00 | 0.00 | 0.00 | 65 | 1013.7 |
| 20260505023005 | 61 | 214 | 0.0 | 3.0 | 0.00 | 0.00 | 0.00 | 64 | 1013.6 |
| 20260505021507 | 62 | 208 | 0.0 | 1.0 | 0.00 | 0.00 | 0.00 | 62 | 1013.6 |
| 20260505020004 | 63 | 208 | 0.0 | 3.0 | 0.00 | 0.00 | 0.00 | 61 | 1013.6 |
| 20260505014504 | 64 | 207 | 0.0 | 3.0 | 0.00 | 0.00 | 0.00 | 60 | 1013.6 |
| 20260505013002 | 65 | 206 | 0.0 | 3.0 | 0.00 | 0.00 | 0.00 | 59 | 1013.3 |
| 20260505011502 | 66 | 231 | 1.0 | 3.0 | 0.00 | 0.00 | 0.00 | 57 | 1013.2 |
| 20260505010002 | 68 | 229 | 0.0 | 2.0 | 0.00 | 0.00 | 0.00 | 54 | 1012.9 |
| 20260505004503 | 70 | 230 | 0.0 | 1.0 | 0.00 | 0.00 | 0.00 | 53 | 1012.9 |
| 20260505003101 | 71 | 230 | 0.0 | 1.0 | 0.00 | 0.00 | 0.00 | 50 | 1012.8 |
| 20260505001632 | 73 | 230 | 0.0 | 2.0 | 0.00 | 0.00 | 0.00 | 49 | 1012.8 |
| 20260505000138 | 74 | 231 | 1.0 | 4.0 | 0.00 | 0.00 | 0.00 | 47 | 1012.8 |
| 20260504234614 | 75 | 154 | 2.0 | 5.0 | 0.00 | 0.00 | 0.00 | 43 | 1012.6 |
| 20260504233107 | 75 | 198 | 2.0 | 6.0 | 0.00 | 0.00 | 0.00 | 43 | 1012.3 |
| 20260504231558 | 76 | 192 | 3.0 | 9.0 | 0.00 | 0.00 | 0.00 | 42 | 1012.3 |
| 20260504230059 | 76 | 219 | 1.0 | 8.0 | 0.00 | 0.00 | 0.00 | 43 | 1012.3 |
| 20260504224609 | 77 | 181 | 2.0 | 7.0 | 0.00 | 0.00 | 0.00 | 41 | 1012.4 |
| 20260504223055 | 78 | 230 | 5.0 | 11.0 | 0.00 | 0.00 | 0.00 | 40 | 1012.4 |
| 20260504221556 | 78 | 167 | 5.0 | 9.0 | 0.00 | 0.00 | 0.00 | 40 | 1012.6 |
| 20260504220058 | 78 | 346 | 2.0 | 9.0 | 0.00 | 0.00 | 0.00 | 40 | 1012.5 |
| 20260504214553 | 79 | 148 | 4.0 | 11.0 | 0.00 | 0.00 | 0.00 | 39 | 1012.5 |
| 20260504213124 | 79 | 42 | 1.0 | 11.0 | 0.00 | 0.00 | 0.00 | 39 | 1012.5 |
| 20260504211555 | 80 | 170 | 2.0 | 10.0 | 0.00 | 0.00 | 0.00 | 40 | 1012.6 |
| 20260504210052 | 80 | 252 | 2.0 | 9.0 | 0.00 | 0.00 | 0.00 | 38 | 1012.5 |
| 20260504204555 | 81 | 212 | 5.0 | 13.0 | 0.00 | 0.00 | 0.00 | 38 | 1012.5 |
| 20260504203104 | 81 | 171 | 3.0 | 10.0 | 0.00 | 0.00 | 0.00 | 37 | 1012.8 |
| 20260504201548 | 81 | 222 | 2.0 | 9.0 | 0.00 | 0.00 | 0.00 | 36 | 1012.9 |
| 20260504200050 | 81 | 230 | 5.0 | 11.0 | 0.00 | 0.00 | 0.00 | 36 | 1013.1 |
| 20260504194558 | 82 | 163 | 2.0 | 11.0 | 0.00 | 0.00 | 0.00 | 35 | 1013.1 |
| 20260504193051 | 80 | 245 | 2.0 | 10.0 | 0.00 | 0.00 | 0.00 | 36 | 1013.4 |
| 20260504191540 | 80 | 184 | 6.0 | 15.0 | 0.00 | 0.00 | 0.00 | 36 | 1013.8 |
| 20260504190041 | 80 | 133 | 3.0 | 10.0 | 0.00 | 0.00 | 0.00 | 36 | 1014.1 |
| 20260504184536 | 80 | 15 | 3.0 | 10.0 | 0.00 | 0.00 | 0.00 | 36 | 1014.2 |
| 20260504183035 | 80 | 181 | 5.0 | 10.0 | 0.00 | 0.00 | 0.00 | 36 | 1014.4 |
| 20260504181532 | 79 | 194 | 2.0 | 8.0 | 0.00 | 0.00 | 0.00 | 36 | 1014.5 |
| 20260504180031 | 78 | 202 | 4.0 | 9.0 | 0.00 | 0.00 | 0.00 | 36 | 1014.4 |
| 20260504174529 | 77 | 218 | 5.0 | 10.0 | 0.00 | 0.00 | 0.00 | 35 | 1014.7 |
| 20260504173036 | 78 | 123 | 4.0 | 9.0 | 0.00 | 0.00 | 0.00 | 36 | 1014.6 |
| 20260504171525 | 77 | 213 | 3.0 | 7.0 | 0.00 | 0.00 | 0.00 | 36 | 1014.8 |
| 20260504110116 | 37 | 10 | 0.0 | 1.0 | 0.00 | 0.00 | 0.00 | 90 | 1017.4 |
| 20260504081537 | 38 | 10 | 0.0 | 0.0 | 0.00 | 0.00 | 0.00 | 88 | 1017.2 |